| time (UTC) | temp F | wind direction | speed MPH | gust MPH | rain 1hr in | rain 24hr in | rain mn in | humidity % | barometer mb |
| 20260503203024 | 61 | 9 | 6.0 | 12.0 | 0.00 | 0.00 | 0.00 | 71 | 1014.3 |
| 20260503201546 | 61 | 9 | 8.0 | 13.0 | 0.00 | 0.00 | 0.00 | 74 | 1014.6 |
| 20260503200012 | 60 | 9 | 5.0 | 11.0 | 0.00 | 0.00 | 0.00 | 77 | 1014.5 |
| 20260503194546 | 60 | 9 | 5.0 | 10.0 | 0.00 | 0.00 | 0.00 | 77 | 1014.6 |
| 20260503193013 | 61 | 9 | 5.0 | 8.0 | 0.00 | 0.00 | 0.00 | 76 | 1014.8 |
| 20260503191538 | 61 | 9 | 4.0 | 10.0 | 0.00 | 0.00 | 0.00 | 76 | 1014.8 |
| 20260503190005 | 61 | 9 | 1.0 | 7.0 | 0.00 | 0.00 | 0.00 | 75 | 1014.8 |
| 20260503184535 | 61 | 9 | 2.0 | 8.0 | 0.00 | 0.00 | 0.00 | 77 | 1014.9 |
| 20260503183009 | 61 | 9 | 1.0 | 7.0 | 0.00 | 0.00 | 0.00 | 76 | 1014.8 |
| 20260503181525 | 60 | 9 | 5.0 | 9.0 | 0.00 | 0.00 | 0.00 | 74 | 1015.0 |
| 20260503180101 | 61 | 9 | 0.0 | 4.0 | 0.00 | 0.00 | 0.00 | 73 | 1014.9 |
| 20260503174528 | 60 | 9 | 1.0 | 6.0 | 0.00 | 0.00 | 0.00 | 74 | 1014.8 |
| 20260503173115 | 59 | 9 | 0.0 | 1.0 | 0.00 | 0.00 | 0.00 | 78 | 1014.7 |
| 20260503171533 | 58 | 9 | 0.0 | 0.0 | 0.00 | 0.00 | 0.00 | 83 | 1014.7 |
| 20260503014553 | 58 | 9 | 3.0 | 8.0 | 0.00 | 0.00 | 0.00 | 84 | 1012.0 |
| 20260503013004 | 58 | 9 | 3.0 | 8.0 | 0.00 | 0.00 | 0.00 | 84 | 1012.0 |
| 20260503004528 | 59 | 9 | 4.0 | 7.0 | 0.00 | 0.00 | 0.00 | 82 | 1012.1 |
| 20260503003057 | 59 | 9 | 5.0 | 10.0 | 0.00 | 0.00 | 0.00 | 81 | 1012.1 |
| 20260502224506 | 59 | 9 | 5.0 | 10.0 | 0.00 | 0.00 | 0.00 | 82 | 1013.0 |
| 20260502223040 | 59 | 9 | 4.0 | 10.0 | 0.00 | 0.00 | 0.00 | 83 | 1013.2 |
| 20260502221601 | 59 | 9 | 5.0 | 9.0 | 0.00 | 0.00 | 0.00 | 80 | 1013.4 |
| 20260502220031 | 59 | 9 | 5.0 | 9.0 | 0.00 | 0.00 | 0.00 | 80 | 1013.5 |
| 20260502214503 | 59 | 9 | 5.0 | 10.0 | 0.00 | 0.00 | 0.00 | 81 | 1013.9 |
| 20260502213033 | 59 | 9 | 4.0 | 10.0 | 0.00 | 0.00 | 0.00 | 81 | 1014.1 |
| 20260502211636 | 60 | 9 | 4.0 | 8.0 | 0.00 | 0.00 | 0.00 | 79 | 1014.1 |
| 20260502210034 | 60 | 9 | 5.0 | 10.0 | 0.00 | 0.00 | 0.00 | 78 | 1014.3 |
| 20260502204600 | 61 | 9 | 4.0 | 8.0 | 0.00 | 0.00 | 0.00 | 77 | 1014.3 |